Terminal Aerodrome Forecast
Issued by NWS Wilmington, OH

Current Version | Previous Version | Text Only | Print | Product List | Glossary Off
Versions: 1 2 3 4 5 6 7 8 9 10 11 12 13 14 15 16 17 18 19 20 21 22 23 24 25 26 27 28 29

000
FTUS41 KILN 210800 AAA
TAFILN
TAF AMD
KILN 210808Z 2108/2206 04004KT 1/4SM FG VV002
     FM211300 VRB03KT P6SM SCT025
     FM211600 08006KT P6SM SCT035
     FM220100 VRB03KT P6SM SKC=

USA.gov is the U.S. government's official web portal to all federal, state and local government web resources and services.